FW1140 Weather Reports


time (UTC)temp
F
wind
direction
speed
knots
gust
knots
rain 1hr
in
rain 24hr
in
rain mn
in
humidity
%
barometer
mb
20260502210049 68 228 15.6 25.2 0.00 0.00 0.00 27 1009.7
20260502204551 68 225 14.8 20.9 0.00 0.00 0.00 30 1010.0
20260502203054 65 193 9.6 14.8 0.00 0.00 0.00 31 1010.2
20260502201544 64 172 13.9 26.9 0.00 0.00 0.00 33 1010.8
20260502200042 66 223 12.2 17.4 0.00 0.00 0.00 32 1011.2
20260502194540 66 216 12.2 18.2 0.00 0.00 0.00 31 1011.3
20260502193039 68 250 13.9 20.9 0.00 0.00 0.00 30 1011.5
20260502191539 67 245 10.4 18.2 0.00 0.00 0.00 31 1011.5
20260502190037 67 226 14.8 22.6 0.00 0.00 0.00 31 1011.9
20260502184535 67 241 14.8 22.6 0.00 0.00 0.00 31 1012.1
20260502183032 67 238 13.0 22.6 0.00 0.00 0.00 34 1012.5
20260502181531 67 239 13.9 20.9 0.00 0.00 0.00 32 1012.7
20260502163011 62 221 14.8 20.9 0.00 0.00 0.00 37 1014.0
20260502161507 62 259 13.9 22.6 0.00 0.00 0.00 37 1014.2
20260502151556 57 266 13.0 20.0 0.00 0.00 0.00 45 1015.0
20260502123004 43 231 12.2 16.5 0.00 0.00 0.00 64 1016.6
20260502121603 42 207 12.2 15.6 0.00 0.00 0.00 66 1016.8
20260502120110 40 218 13.0 16.5 0.00 0.00 0.00 69 1016.7
20260502114557 39 214 12.2 16.5 0.00 0.00 0.00 69 1016.8
20260502113048 38 215 11.3 13.9 0.00 0.00 0.00 71 1016.9
20260502111547 38 211 11.3 13.9 0.00 0.00 0.00 72 1016.9
20260502110043 38 216 10.4 14.8 0.00 0.00 0.00 72 1017.0
20260502104549 37 209 9.6 13.0 0.00 0.00 0.00 74 1017.1
20260502103040 38 210 10.4 14.8 0.00 0.00 0.00 72 1017.3
20260502101539 38 207 9.6 12.2 0.00 0.00 0.00 73 1017.4
20260502091531 36 224 7.8 11.3 0.00 0.00 0.00 76 1017.7
20260502070023 35 223 7.0 9.6 0.00 0.00 0.00 78 1018.3
20260502064517 34 226 7.8 8.7 0.00 0.00 0.00 78 1018.4
20260502063015 35 221 5.2 7.8 0.00 0.00 0.00 76 1018.5
20260502061513 35 219 5.2 7.8 0.00 0.00 0.00 76 1018.5
20260502060011 35 217 6.1 7.8 0.00 0.00 0.00 77 1018.4
20260502054515 34 223 5.2 6.1 0.00 0.00 0.00 80 1018.5
20260502053007 34 224 4.3 5.2 0.00 0.00 0.00 81 1018.7
20260502051512 34 222 4.3 5.2 0.00 0.00 0.00 81 1018.8
20260502050003 35 227 3.5 5.2 0.00 0.00 0.00 80 1018.8
20260502044503 35 243 4.3 6.1 0.00 0.00 0.00 80 1018.8
20260502043003 35 229 4.3 6.1 0.00 0.00 0.00 78 1018.8
20260502041502 35 232 3.5 5.2 0.00 0.00 0.00 75 1019.0
20260502040002 35 229 5.2 7.0 0.00 0.00 0.00 78 1019.1
20260502034502 35 231 4.3 6.1 0.00 0.00 0.00 74 1019.0
20260502033101 36 232 4.3 5.2 0.00 0.00 0.00 72 1019.1
20260502031611 36 226 4.3 5.2 0.00 0.00 0.00 71 1018.9
20260502030059 37 226 4.3 5.2 0.00 0.00 0.00 70 1018.8
20260502024559 39 229 2.6 3.5 0.00 0.00 0.00 64 1018.7
20260502023100 40 233 2.6 3.5 0.00 0.00 0.00 62 1018.6
20260502021558 38 233 2.6 4.3 0.00 0.00 0.00 66 1018.5
20260502020109 39 340 0.9 1.7 0.00 0.00 0.00 63 1018.4
20260502014556 43 340 0.0 1.7 0.00 0.03 0.00 60 1018.3
20260502013100 46 340 0.0 0.0 0.00 0.03 0.00 52 1018.2
20260502011558 47 340 0.9 3.5 0.00 0.03 0.00 48 1018.2
20260502010058 49 345 2.6 5.2 0.00 0.03 0.00 44 1018.2
20260502004556 50 342 4.3 7.0 0.00 0.03 0.00 43 1018.2
20260502003055 51 356 5.2 7.0 0.00 0.03 0.00 41 1018.0
20260502001555 51 4 7.8 10.4 0.00 0.03 0.00 40 1018.1
20260502000054 51 341 6.1 8.7 0.00 0.03 0.00 41 1017.9
20260501234557 52 324 5.2 10.4 0.00 0.03 0.00 40 1018.1
20260501233057 52 34 6.1 11.3 0.00 0.03 0.00 42 1017.9
20260501231559 51 342 7.0 13.0 0.00 0.03 0.00 41 1018.1
20260501230051 52 351 7.0 12.2 0.00 0.03 0.00 41 1018.2
20260501224551 52 360 8.7 18.2 0.00 0.03 0.00 41 1018.2
20260501223054 52 27 7.0 11.3 0.00 0.03 0.00 41 1018.2
20260501221550 52 353 9.6 14.8 0.00 0.03 0.00 41 1018.4
20260501220050 52 310 7.0 10.4 0.00 0.03 0.00 43 1018.4
20260501214559 50 4 4.3 14.8 0.00 0.03 0.00 44 1018.4
20260501213051 51 33 5.2 14.8 0.00 0.03 0.00 43 1018.6
20260501211546 51 13 4.3 12.2 0.00 0.03 0.00 44 1018.6